Regional Weather Roundup
Issued by NWS

Home | Current Version | Previous Version | Text Only | Print | Product List | Glossary On
Versions: 1 2 3 4 5 6 7 8 9 10 11 12 13 14 15 16 17 18 19 20 21 22 23 24 25 26 27 28 29 30 31 32 33 34 35 36 37 38 39 40 41 42 43 44 45 46 47 48 49 50
000
ASUS43 KLSX 031507
RWRMO

WEATHER SUMMARY FOR MISSOURI
NATIONAL WEATHER SERVICE SPRINGFIELD MO
1000 AM CDT SUN MAY 03 2015

NOTE: "FAIR" INDICATES FEW OR NO CLOUDS BELOW 12,000 FEET WITH NO
       SIGNIFICANT WEATHER AND/OR OBSTRUCTIONS TO VISIBILITY.
       CURRENT SKY AND/OR WEATHER CONDITIONS ARE NOT AVAILABLE FOR
       CHILLICOTHE AND FARMINGTON.

MOZ001>031-035>038-043-044-053-054-031600-
...NORTHERN AND WESTERN MISSOURI...

CITY           SKY/WX    TMP DP  RH WIND       PRES   REMARKS
KANSAS CTY INT PTSUNNY   70  56  61 S20       29.86S
KANSAS C DTWN  PTSUNNY   71  56  58 S12       29.87S
LEE`S SUMMIT   PTSUNNY   67  54  63 S9        29.89F
ST JOSEPH      MOSUNNY   73  58  59 SW17G29   29.83F
CHILLICOTHE      N/A     71  56  58 S13G23    29.88F
KIRKSVILLE     SUNNY     71  57  61 S13       29.92R

$$
MOZ066>068-077>081-088>096-101>105-031600-
...SOUTHWEST MISSOURI...

CITY           SKY/WX    TMP DP  RH WIND       PRES   REMARKS
SPRINGFIELD    PTSUNNY   68  52  56 S16       30.00F
JOPLIN         MOSUNNY   71  55  56 S15G22    29.97F

$$
MOZ032>034-039>042-045>050-055>058-069>072-031600-
...CENTRAL MISSOURI...

CITY           SKY/WX    TMP DP  RH WIND       PRES   REMARKS
COLUMBIA       MOSUNNY   70  54  56 S14G22    29.97F
JEFFERSON CITY MOSUNNY   71  52  50 S8        29.98F
ROLLA          PTSUNNY   69  52  54 S12       30.01S
SEDALIA        PTSUNNY   73  54  51 SW16G28   29.94F
WARRENSBURG    CLOUDY    64  54  68 S10G16    29.91F
OSAGE BEACH    MOSUNNY   72  54  53 S8        29.99S

$$
MOZ051-052-059>065-031600-
...EAST CENTRAL MISSOURI...

CITY           SKY/WX    TMP DP  RH WIND       PRES   REMARKS
ST LOUIS INTL  PTSUNNY   75  50  41 SW8       30.03S
SPIRIT OF STL  PTSUNNY   73  50  44 S7        30.01F
ST CHARLES     SUNNY     73  50  44 SW8       30.01F

$$
MOZ072>076-082>087-097>100-106>115-031600-
...SOUTH CENTRAL AND SOUTHEAST MISSOURI...

CITY           SKY/WX    TMP DP  RH WIND       PRES   REMARKS
CAPE GIRARDEAU PTSUNNY   71  49  45 SW7       30.09S
FARMINGTON     PTSUNNY   68  46  45 S10       30.11S
POPLAR BLUFF   PTSUNNY   69  48  47 SW7       30.08S
WEST PLAINS    MOSUNNY   70  45  40 S10       30.07F

$$


USA.gov is the U.S. government's official web portal to all federal, state and local government web resources and services.